DW4714 Weather Reports


time (UTC)temp
C
wind
direction
speed
KPH
gust
KPH
rain 1hr
cm
rain 24hr
cm
rain mn
cm
humidity
%
barometer
mb
20260901023617 20 267 0.0 0.0 0.00 0.00 0.00 72 1014.6
20260901022617 20 267 0.0 0.0 0.00 0.00 0.00 72 1014.7
20260901021617 20 267 0.0 0.0 0.00 0.00 0.00 72 1014.9
20260901020617 20 267 0.0 0.0 0.00 0.00 0.00 72 1014.9
20260901015637 20 267 0.0 0.0 0.00 0.00 0.00 72 1014.9
20260901014617 20 267 0.0 0.0 0.00 0.00 0.00 72 1014.9
20260901013637 20 267 0.0 0.0 0.00 0.00 0.00 72
20260901012637 20 267 0.0 0.0 0.00 0.00 0.00 71
20260901011617 20 267 0.0 0.0 0.00 0.00 0.00 71 1014.7
20260901010617 20 267 0.0 0.0 0.00 0.00 0.00 71 1014.7
20260901005637 20 267 0.0 0.0 0.00 0.00 0.00 71 1014.6
20260901004617 20 267 0.0 0.0 0.00 0.00 0.00 71 1014.7
20260901003637 21 267 0.0 0.0 0.00 0.00 0.00 71 1014.6
20260901002617 21 267 0.0 0.0 0.00 0.00 0.00 70 1014.5
20260901001617 21 267 0.0 0.0 0.00 0.00 0.00 71 1014.5
20260901000617 21 267 0.0 0.0 0.00 0.00 0.00 70 1014.5
20260831235617 21 267 0.0 0.0 0.00 0.00 0.00 70
20260831234617 22 267 0.0 0.0 0.00 0.00 0.00 70 1014.5
20260831233617 22 267 0.0 0.0 0.00 0.00 0.00 70 1014.6
20260831232617 22 267 0.0 0.0 0.00 0.00 0.00 69 1014.6
20260831231617 22 267 0.0 0.0 0.00 0.00 0.00 69 1014.6
20260831230617 22 267 0.0 0.0 0.00 0.00 0.00 69 1014.8
20260831225617 22 267 0.0 0.0 0.00 0.00 0.00 69 1014.9
20260831224618 22 267 0.0 0.0 0.00 0.00 0.00 69 1014.8
20260831223617 22 267 0.0 0.0 0.00 0.00 0.00 68 1014.9
20260831222637 22 267 0.0 0.0 0.00 0.00 0.00 68 1014.9
20260831221617 22 267 0.0 0.0 0.00 0.00 0.00 68 1015.1
20260831220617 23 267 0.0 0.0 0.00 0.00 0.00 68 1015.1
20260831215617 23 267 0.0 0.0 0.00 0.00 0.00 67 1015.0
20260831214617 23 242 0.0 0.0 0.00 0.00 0.00 68 1015.1
20260831213617 23 180 0.0 0.0 0.00 0.00 0.00 68 1015.1
20260831212616 23 180 0.0 0.0 0.00 0.00 0.00 67 1015.1
20260831211617 23 180 0.0 6.4 0.00 0.00 0.00 67 1015.2
20260831210617 23 175 0.0 0.0 0.00 0.00 0.00 67 1015.1
20260831205636 23 175 0.0 0.0 0.00 0.00 0.00 67
20260831204617 23 175 0.0 0.0 0.00 0.00 0.00 67 1015.3
20260831203637 23 175 0.0 0.0 0.00 0.00 0.00 68 1015.5
20260831202657 23 175 0.0 0.0 0.00 0.00 0.00 68 1015.6
20260831201621 23 175 0.0 0.0 0.00 0.00 0.00 69 1015.7
20260831200617 23 175 0.0 0.0 0.00 0.00 0.00 68 1015.8
20260831195617 23 175 0.0 0.0 0.00 0.00 0.00 68 1015.8
20260831194617 23 175 0.0 0.0 0.00 0.00 0.00 66 1015.8
20260831193617 23 175 0.0 0.0 0.00 0.00 0.00 64 1016.0
20260831192637 23 175 0.0 0.0 0.00 0.00 0.00 63 1016.1
20260831191616 23 175 0.0 0.0 0.00 0.00 0.00 63 1016.3
20260831190617 23 175 0.0 0.0 0.00 0.00 0.00 64 1016.4
20260831185616 23 175 0.0 0.0 0.00 0.00 0.00 65 1016.6
20260831184616 23 175 0.0 0.0 0.00 0.00 0.00 64 1016.7
20260831183637 23 175 0.0 0.0 0.00 0.00 0.00 64 1016.7
20260831182616 23 175 0.0 0.0 0.00 0.00 0.00 64 1016.7
20260831181636 23 175 0.0 0.0 0.00 0.00 0.00 63 1016.8
20260831180616 23 175 0.0 0.0 0.00 0.00 0.00 63 1016.8
20260831175616 23 175 0.0 0.0 0.00 0.00 0.00 63 1016.9
20260831174636 23 175 0.0 0.0 0.00 0.00 0.00 63 1017.0
20260831173636 23 175 0.0 0.0 0.00 0.00 0.00 61 1016.9
20260831172616 23 175 0.0 0.0 0.00 0.00 0.00 62 1017.0
20260831171616 23 175 0.0 0.0 0.00 0.00 0.00 62 1016.9
20260831170616 23 175 0.0 0.0 0.00 0.00 0.00 61 1016.8
20260831165616 23 175 0.0 0.0 0.00 0.00 0.00 58 1016.8
20260831164616 23 175 0.0 0.0 0.00 0.00 0.00 57 1016.9
20260831163616 24 175 0.0 0.0 0.00 0.00 0.00 57 1017.0
20260831162637 24 270 3.2 6.4 0.00 0.00 0.00 57 1017.0
20260831161616 23 263 0.0 0.0 0.00 0.00 0.00 60 1017.0
20260831160616 23 270 4.8 9.7 0.00 0.00 0.00 62 1016.9
20260831155616 22 267 0.0 0.0 0.00 0.00 0.00 62 1017.0
20260831154616 22 267 0.0 0.0 0.00 0.00 0.00 64 1017.1
20260831153616 22 267 0.0 0.0 0.00 0.00 0.00 65 1017.3
20260831152616 22 267 0.0 0.0 0.00 0.00 0.00 65 1017.4
20260831151616 22 267 0.0 0.0 0.00 0.00 0.00 63
20260831150616 22 267 0.0 0.0 0.00 0.00 0.00 65 1017.4
20260831145616 22 267 0.0 0.0 0.00 0.00 0.00 65 1017.2
20260831144617 22 267 0.0 0.0 0.00 0.00 0.00 64 1017.2
20260831143616 22 267 0.0 0.0 0.00 0.00 0.00 65 1017.5
20260831142616 22 267 0.0 0.0 0.00 0.00 0.00 65 1017.6
20260831141616 22 57 0.0 0.0 0.00 0.00 0.00 67 1017.5
20260831140616 21 65 0.0 0.0 0.00 0.00 0.00 68 1017.3
20260831135656 21 68 0.0 1.6 0.00 0.00 0.00 72 1017.3
20260831134616 21 0.0 0.0 0.00 0.00 0.00 76 1017.4
20260831133616 20 0.0 0.0 0.00 0.00 0.00 77 1017.4
20260831132616 20 0.0 0.0 0.00 0.00 0.00 77 1017.1
20260831131617 20 0.0 0.0 0.00 0.00 0.00 77 1017.1
20260831130616 20 0.0 0.0 0.00 0.00 0.00 77 1017.2
20260831125616 19 0.0 0.0 0.00 0.00 0.00 77 1017.2
20260831124638 19 0.0 0.0 0.00 0.00 0.00 77 1017.2
20260831123616 19 0.0 0.0 0.00 0.00 0.00 77 1017.3
20260831122616 18 0.0 0.0 0.00 0.00 0.00 77 1017.4
20260831121615 18 0.0 0.0 0.00 0.00 0.00 77 1017.0
20260831120616 18 0.0 0.0 0.00 0.00 0.00 77 1017.3
20260831115616 18 0.0 0.0 0.00 0.00 0.00 77 1017.2
20260831114616 18 0.0 0.0 0.00 0.00 0.00 77 1017.1
20260831113615 18 0.0 0.0 0.00 0.00 0.00 77
20260831112636 18 0.0 0.0 0.00 0.00 0.00 77 1017.1
20260831111615 18 0.0 0.0 0.00 0.00 0.00 76 1017.1
20260831110615 18 0.0 0.0 0.00 0.00 0.00 76 1017.0
20260831105617 18 0.0 0.0 0.00 0.00 0.00 76
20260831104617 17 0.0 0.0 0.00 0.00 0.00 76
20260831103617 17 0.0 0.0 0.00 0.00 0.00 75 1016.5
20260831102638 18 0.0 0.0 0.00 0.00 0.00 76
20260831101618 18 0.0 0.0 0.00 0.00 0.00 75 1016.3
20260831100658 18 0.0 0.0 0.00 0.00 0.00 75 1016.4
20260831095616 18 0.0 0.0 0.00 0.00 0.00 75 1016.4
20260831094637 18 0.0 0.0 0.00 0.00 0.00 75 1016.5
20260831093617 18 0.0 0.0 0.00 0.00 0.00 75 1016.4
20260831092618 18 0.0 0.0 0.00 0.00 0.00 75 1016.3
20260831091618 18 0.0 0.0 0.00 0.00 0.00 75 1016.2
20260831090616 18 0.0 0.0 0.00 0.00 0.00 75 1016.2
20260831085617 18 0.0 0.0 0.00 0.00 0.00 75 1016.1
20260831084618 18 0.0 0.0 0.00 0.00 0.00 75 1016.1
20260831083637 18 0.0 0.0 0.00 0.00 0.00 75 1016.2
20260831082658 18 0.0 0.0 0.00 0.00 0.00 75 1016.1
20260831081617 18 0.0 0.0 0.00 0.00 0.00 75 1016.0
20260831080617 18 0.0 0.0 0.00 0.00 0.00 75 1015.9
20260831075617 18 0.0 0.0 0.00 0.00 0.00 75 1016.1
20260831074617 18 0.0 0.0 0.00 0.00 0.00 74 1016.1
20260831073637 18 0.0 0.0 0.00 0.00 0.00 74 1016.2
20260831072637 18 0.0 0.0 0.00 0.00 0.00 74 1016.0
20260831071617 18 0.0 0.0 0.00 0.00 0.00 74 1016.1
20260831070616 18 0.0 0.0 0.00 0.00 0.00 74 1016.1
20260831065637 18 0.0 0.0 0.00 0.00 0.00 74 1016.1
20260831064617 18 0.0 0.0 0.00 0.00 0.00 74 1016.2
20260831063617 18 0.0 0.0 0.00 0.00 0.00 73 1016.3
20260831062637 18 0.0 0.0 0.00 0.00 0.00 73
20260831061618 19 0.0 0.0 0.00 0.00 0.00 73 1016.4
20260831060617 19 0.0 0.0 0.00 0.00 0.00 73 1016.3
20260831055616 19 338 0.0 0.0 0.00 0.00 0.00 73 1016.2
20260831054618 19 338 0.0 0.0 0.00 0.00 0.00 73 1016.2
20260831053617 19 338 0.0 0.0 0.00 0.00 0.00 73 1016.3
20260831052617 19 338 0.0 0.0 0.00 0.00 0.00 73 1016.4
20260831051617 19 338 0.0 0.0 0.00 0.00 0.00 73 1016.4
20260831050637 19 338 0.0 0.0 0.00 0.00 0.00 73 1016.4
20260831045617 19 338 0.0 0.0 0.00 0.00 0.00 72 1016.5
20260831044642 20 338 0.0 0.0 0.00 0.00 0.00 72 1016.3
20260831043617 20 338 0.0 0.0 0.00 0.00 0.00 72 1016.4
20260831042637 20 338 0.0 0.0 0.00 0.00 0.00 72 1016.5
20260831040617 20 338 0.0 0.0 0.00 0.00 0.00 72 1016.5
20260831035617 20 338 0.0 0.0 0.00 0.00 0.00 72 1016.5
20260831034638 20 338 0.0 0.0 0.00 0.00 0.00 72 1016.4
20260831033617 20 338 0.0 0.0 0.00 0.00 0.00 72 1016.4
20260831032618 20 338 0.0 0.0 0.00 0.00 0.00 72 1016.2
20260831031637 20 338 0.0 0.0 0.00 0.00 0.00 72 1016.3
20260831030617 20 338 0.0 0.0 0.00 0.00 0.00 72 1016.4
20260831025617 20 338 0.0 0.0 0.00 0.00 0.00 72 1016.4
20260831024637 20 338 0.0 0.0 0.00 0.00 0.00 72 1016.4